Flag for U.S.A. Weather past 2 weeks in Cleveland, Ohio, U.S.A.

Now
51 °F

Partly cloudy.


Feels Like: 48 °F
Forecast: 44 / 60 °F
Wind: 8 mph from South

Location: Cleveland-Hopkins International Airport


UV Index: 3 (Moderate)

Visibility: 10 mi


Pressure: 30.29 "Hg

Humidity: 42%

Dew point: 29 °F

Location of ClevelandLocation

Historic Weather in Cleveland

°F

Cleveland temperature yesterday

Maximum temperature yesterday: 66 °F (at 4:51 PM)
Minimum temperature yesterday: 39 °F (at 12:51 AM)
Average temperature yesterday: 52 °F

Past Weeks' High & Low Weather Summary

 TemperatureHumidityPressure
High78 °F (Apr 13, 4:51 PM)93% (Apr 4, 6:51 AM)30.53 "Hg (Apr 4, 6:51 AM)
Low25 °F (Apr 16, 6:51 AM)27% (Apr 12, 3:51 PM)29.37 "Hg (Apr 8, 1:51 AM)
Average49 °F59%29.97 "Hg
* Reported Apr 3 5:51 AM — Apr 18 5:51 AM, Cleveland, Weather by CustomWeather, © 2014

Note: Actual official high and low records may vary slightly from our data, if they occured in-between our weather recording intervals... More about our weather records

Advertising

Historic Weather Conditions — Data for Previous 24 hours

 ConditionsComfort  
Time TempWeatherWind HumidityBarometerVisibility
5:51 AM
Apr 18
46 °FPassing clouds.9 mph54%30.28 "Hg10 mi
4:51 AM49 °FPassing clouds.12 mph48%30.27 "Hg10 mi
3:51 AM50 °FPassing clouds.12 mph46%30.28 "Hg10 mi
2:51 AM51 °FPassing clouds.14 mph44%30.28 "Hg10 mi
1:51 AM54 °FPartly cloudy.14 mph41%30.29 "Hg10 mi
12:51 AM53 °FPassing clouds.8 mph47%30.30 "Hg10 mi
11:51 PM
Apr 17
54 °FPassing clouds.8 mph43%30.32 "Hg10 mi
10:51 PM54 °FPassing clouds.8 mph45%30.34 "Hg10 mi
9:51 PM58 °FPassing clouds.6 mph36%30.33 "Hg10 mi
8:51 PM61 °FPartly sunny.5 mph31%30.31 "Hg10 mi
7:51 PM62 °FPartly sunny.8 mph31%30.31 "Hg10 mi
6:51 PM65 °FPartly sunny.14 mph28%30.30 "Hg10 mi
5:51 PM66 °FScattered clouds.15 mph28%30.30 "Hg10 mi
4:51 PM66 °FPassing clouds.15 mph29%30.31 "Hg10 mi
3:51 PM65 °FScattered clouds.15 mph29%30.32 "Hg10 mi
2:51 PM63 °FPassing clouds.15 mph31%30.35 "Hg10 mi
1:51 PM61 °FPassing clouds.12 mph34%30.37 "Hg10 mi
12:51 PM59 °FScattered clouds.14 mph36%30.39 "Hg10 mi
11:51 AM56 °FScattered clouds.15 mph36%30.40 "Hg10 mi
10:51 AM52 °FPartly sunny.14 mph38%30.41 "Hg10 mi
9:51 AM50 °FPartly sunny.20 mph38%30.41 "Hg10 mi
8:51 AM44 °FScattered clouds.13 mph41%30.42 "Hg10 mi
7:51 AM41 °FScattered clouds.18 mph43%30.41 "Hg10 mi
Weather by CustomWeather, © 2014

See weather overview